[[{"header":{"parameterUnit":"m.s-1","parameterCategory":1,"la1":30.2991,"la2":30.254,"lo1":-89.0895,"lo2":-89.0444,"dy":0.0017,"dx":0.0017,"nx":28,"ny":28,"refTime":"2024-07-14T09:00:00:Z","depth":0,"parameterNumber":2,"parameterNumberName":"U-component_of_WINDS"},"data":[0,0,0,0,0,0,0,0,0,0,0,0,0,0,0,0,0,0,0,0,0,0,0,0,0,0,0,0,0,0,0,0,0,0,0,0,0,0,0,0,0,0,0,0,0,0,0,0,0,0,0,0,0,0,0,0,0,0,-0.482,-0.481,0,-0.3871,-0.386,-0.3849,-0.3367,-0.3366,-0.3366,-0.3366,-0.2383,-0.2358,-0.2332,0,0,0,0,0,0,0,0,0,0,0,0,0,-0.6203,-0.6181,-0.4821,-0.4809,-0.4797,-0.3873,-0.386,-0.3847,-0.3367,-0.3366,-0.3366,-0.3366,-0.2391,-0.2361,-0.233,0,0,0,0,0,0,0,0,0,0,0,0,0,-0.5464,-0.6173,-0.4823,-0.4446,-0.4403,-0.3875,-0.3859,-0.3843,-0.3367,-0.3366,-0.3366,-0.3365,-0.2401,-0.2364,-0.2325,-0.2096,0,0,-0.2207,-0.219,0,0,0,0,0,0,0,0,-0.5506,-0.5413,-0.4513,-0.4471,-0.4422,-0.3737,-0.3986,-0.3257,-0.3367,-0.376,-0.3366,-0.3365,-0.2833,-0.2759,-0.2581,-0.205,-0.2008,-0.2204,-0.218,-0.2163,-0.2152,0,0,0,0,0,0,0,-0.5558,-0.5451,-0.4444,-0.4501,-0.4445,-0.432,-0.4215,-0.3846,-0.3311,-0.3726,-0.3689,-0.3583,-0.2808,-0.262,-0.2555,-0.1994,-0.2205,-0.217,-0.2146,-0.2131,-0.1222,-0.1221,0,0,0,0,0,0,-0.5672,-0.5497,-0.4474,-0.4416,-0.4974,-0.4296,-0.4178,-0.3957,-0.3313,-0.3215,-0.3585,-0.3565,-0.2687,-0.2601,-0.2519,-0.2204,-0.2164,-0.2127,-0.2105,-0.1223,-0.1222,-0.1221,0,0,0,0,0,0,-0.5704,-0.5585,-0.4513,-0.4946,-0.48,-0.4273,-0.4029,-0.3939,-0.375,-0.3207,-0.3108,-0.3492,-0.2683,-0.2573,-0.2204,-0.2164,-0.211,-0.2075,-0.1224,-0.1222,-0.1221,-0.1579,0,0,0,0,0,0,-0.5745,-0.56,-0.5511,-0.4948,-0.4779,-0.422,-0.4026,-0.3921,-0.3686,-0.3651,-0.3094,-0.3001,-0.2674,-0.2265,-0.2166,-0.2109,-0.2044,-0.1225,-0.1223,-0.1222,-0.1568,-0.159,-0.1609,0,0,0,0,0,-0.5797,-0.5647,-0.5509,-0.5388,-0.4657,-0.4219,-0.4121,-0.3752,-0.3685,-0.3588,-0.3239,-0.3019,-0.2186,-0.2232,-0.2116,-0.2047,-0.1226,-0.1224,-0.1222,-0.1559,-0.1586,-0.1608,0,0,0,0,0,0,-0.6215,-0.5567,-0.5406,-0.5071,-0.4705,-0.4139,-0.4005,-0.3792,-0.3433,-0.3414,-0.2967,-0.2845,-0.2517,-0.2244,-0.2308,-0.1789,-0.1683,-0.1658,-0.198,-0.2,-0.202,-0.2091,-0.2012,0,0,0,0,0,-0.627,-0.5972,-0.5419,-0.5177,-0.5002,-0.4538,-0.4332,-0.4079,-0.3679,-0.352,-0.3143,-0.2761,-0.2411,-0.219,-0.1839,-0.1527,-0.1396,-0.1422,-0.1443,-0.1462,-0.1445,-0.1255,-0.1259,-0.1214,-0.1214,-0.1214,0,0,-0.6376,-0.5985,-0.5824,-0.5251,-0.4937,-0.4635,-0.4409,-0.4099,-0.3868,-0.3471,-0.3101,-0.2812,-0.2354,-0.2014,-0.1843,-0.1775,-0.1428,-0.146,-0.1479,-0.1449,-0.1254,-0.1259,-0.1263,-0.1213,-0.1213,-0.1213,0,0,-0.6416,-0.6093,-0.5854,-0.5545,-0.5074,-0.4765,-0.471,-0.4174,-0.3967,-0.359,-0.3285,-0.3002,-0.2412,-0.2097,-0.1861,-0.1782,-0.1564,-0.168,-0.1784,-0.1605,-0.1608,-0.1609,-0.1578,-0.1572,-0.1665,-0.1666,-0.1666,0,-0.6608,-0.6144,-0.5758,-0.5464,-0.5219,-0.485,-0.4602,-0.4319,-0.3757,-0.3594,-0.3527,-0.2777,-0.2443,-0.2021,-0.2003,-0.1824,-0.1742,-0.174,-0.164,-0.1637,-0.1632,-0.1597,-0.1587,-0.1683,-0.1681,-0.1679,-0.1678,0,-0.6401,-0.6084,-0.5946,-0.5417,-0.5156,-0.4888,-0.4457,-0.4238,-0.4009,-0.3707,-0.3324,-0.2911,-0.2469,-0.235,-0.2121,-0.1894,-0.1867,-0.1727,-0.161,-0.166,-0.1619,-0.1603,-0.1707,-0.1701,-0.1696,-0.1692,0,0,-0.6676,-0.5937,-0.5893,-0.5647,-0.51,-0.4844,-0.4558,-0.4128,-0.3949,-0.3573,-0.3318,-0.2827,-0.2693,-0.2425,-0.2156,-0.2,-0.196,-0.1876,-0.1858,-0.1904,-0.1681,-0.1789,-0.178,-0.1814,-0.181,-0.1807,-0.1718,0,-0.6637,-0.611,-0.5753,-0.5364,-0.5063,-0.4708,-0.4457,-0.4092,-0.3803,-0.3501,-0.3178,-0.2837,-0.2687,-0.2523,-0.2352,-0.2003,-0.1909,-0.2004,-0.1568,-0.1557,-0.1692,-0.1758,-0.1871,-0.1807,-0.17,-0.1697,-0.1695,0,-0.652,-0.616,-0.5743,-0.5226,-0.5086,-0.4868,-0.4444,-0.4163,-0.3741,-0.354,-0.3242,-0.2969,-0.2646,-0.2562,-0.2107,-0.218,-0.198,-0.1782,-0.177,-0.1712,-0.1628,-0.17,-0.1778,-0.1769,-0.1667,-0.1669,-0.1671,0,-0.6761,-0.617,-0.5842,-0.5643,-0.5033,-0.4888,-0.4626,-0.4203,-0.3967,-0.3596,-0.3437,-0.3034,-0.2812,-0.2503,-0.2126,-0.21,-0.171,-0.1594,-0.153,-0.154,-0.1461,-0.1471,-0.1507,-0.134,-0.134,-0.1341,-0.1341,0,-0.6753,-0.6511,-0.5942,-0.5741,-0.5457,-0.5048,-0.4777,-0.4484,-0.4111,-0.3843,-0.351,-0.3265,-0.2784,-0.2479,-0.2182,-0.1849,-0.1752,-0.1577,-0.1501,-0.1605,-0.1628,-0.1466,-0.146,-0.1337,-0.1338,-0.1339,-0.1339,0,-0.6972,-0.6582,-0.6201,-0.5657,-0.5514,-0.5329,-0.4859,-0.4647,-0.4341,-0.4005,-0.3903,-0.3419,-0.3042,-0.2637,-0.2122,-0.1922,-0.1604,-0.1497,-0.1749,-0.1704,-0.1662,-0.1671,-0.1592,-0.1559,-0.1423,-0.1425,-0.1426,0,-0.6992,-0.6797,-0.6233,-0.6032,-0.578,-0.546,-0.5218,-0.4807,-0.4568,-0.4072,-0.3919,-0.3519,-0.3175,-0.2589,-0.2189,-0.1793,-0.1672,-0.1671,-0.1609,-0.172,-0.1667,-0.1683,-0.1659,-0.1691,-0.1694,-0.1697,-0.17,0,-0.7067,-0.6884,-0.6551,-0.615,-0.5873,-0.5536,-0.5186,-0.5039,-0.4557,-0.4305,-0.3918,-0.3653,-0.3129,-0.2733,-0.2289,-0.2012,-0.1774,-0.1723,-0.1686,-0.179,-0.1942,-0.1856,-0.1798,-0.1726,-0.1723,-0.1721,-0.172,-0.1719,-0.7182,-0.6993,-0.6566,-0.6205,-0.59,-0.5581,-0.5355,-0.5021,-0.4692,-0.4236,-0.4012,-0.3625,-0.3202,-0.2581,-0.2312,-0.2,-0.1927,-0.1876,-0.1861,-0.1855,-0.1881,-0.1996,-0.1918,-0.1916,-0.1915,-0.1914,-0.1913,0,-0.7238,-0.6947,-0.662,-0.6142,-0.5858,-0.5664,-0.5266,-0.5039,-0.4705,-0.4333,-0.4003,-0.3557,-0.3171,-0.2742,-0.2329,-0.2161,-0.2041,-0.2066,-0.2073,-0.2012,-0.197,-0.2042,-0.217,-0.217,-0.217,-0.217,-0.217,-0.217,-0.7233,-0.6901,-0.6668,-0.6178,-0.5885,-0.5507,-0.5296,-0.4998,-0.4699,-0.4217,-0.3897,-0.3621,-0.3223,-0.2778,-0.2415,-0.2297,-0.2159,-0.2216,-0.2068,-0.2036,-0.2016,-0.1996,-0.2061,-0.219,-0.2191,-0.2133,-0.2133,-0.2133]},{"header":{"parameterUnit":"m.s-1","parameterCategory":1,"la1":30.2991,"la2":30.254,"lo1":-89.0895,"lo2":-89.0444,"dy":0.0017,"dx":0.0017,"nx":28,"ny":28,"refTime":"2024-07-14T09:00:00:Z","depth":0,"parameterNumber":3,"parameterNumberName":"V-component_of_WINDS"},"data":[0,0,0,0,0,0,0,0,0,0,0,0,0,0,0,0,0,0,0,0,0,0,0,0,0,0,0,0,0,0,0,0,0,0,0,0,0,0,0,0,0,0,0,0,0,0,0,0,0,0,0,0,0,0,0,0,0,0,-2.8644,-2.8644,0,-2.8619,-2.8619,-2.8618,-2.8291,-2.8283,-2.8274,-2.8266,-2.8263,-2.827,-2.8278,0,0,0,0,0,0,0,0,0,0,0,0,0,-2.8423,-2.8429,-2.8644,-2.8644,-2.8643,-2.8619,-2.8619,-2.8618,-2.8292,-2.8282,-2.8272,-2.8263,-2.826,-2.827,-2.8279,0,0,0,0,0,0,0,0,0,0,0,0,0,-2.8472,-2.8431,-2.8644,-2.8477,-2.8462,-2.8619,-2.8619,-2.8618,-2.8295,-2.8282,-2.8269,-2.8258,-2.8257,-2.8269,-2.828,-2.8602,0,0,-2.8315,-2.832,0,0,0,0,0,0,0,0,-2.8469,-2.848,-2.8502,-2.8489,-2.8472,-2.8444,-2.8539,-2.8614,-2.8298,-2.8359,-2.8266,-2.8252,-2.8335,-2.8339,-2.8363,-2.8602,-2.8602,-2.8316,-2.8323,-2.8328,-2.8332,0,0,0,0,0,0,0,-2.8466,-2.848,-2.8634,-2.8503,-2.8485,-2.8408,-2.8401,-2.8552,-2.8419,-2.8353,-2.8329,-2.8329,-2.8325,-2.8353,-2.836,-2.8602,-2.8316,-2.8326,-2.8333,-2.8338,-2.9093,-2.9105,0,0,0,0,0,0,-2.8484,-2.8479,-2.8635,-2.8634,-2.8439,-2.8422,-2.8414,-2.8467,-2.8415,-2.8395,-2.834,-2.8314,-2.8339,-2.8347,-2.8359,-2.8724,-2.8328,-2.8339,-2.8346,-2.908,-2.9095,-2.911,0,0,0,0,0,0,-2.848,-2.8501,-2.8636,-2.8549,-2.8561,-2.8439,-2.8501,-2.8473,-2.85,-2.8405,-2.8382,-2.8392,-2.8329,-2.8343,-2.854,-2.872,-2.8344,-2.8355,-2.9064,-2.9084,-2.9103,-2.9464,0,0,0,0,0,0,-2.8475,-2.8501,-2.862,-2.8554,-2.8567,-2.8815,-2.8512,-2.8481,-2.8518,-2.8484,-2.8448,-2.843,-2.8321,-2.8524,-2.8552,-2.8729,-2.8364,-2.9047,-2.9073,-2.9096,-2.9436,-2.9494,-2.9544,0,0,0,0,0,-2.8469,-2.873,-2.8628,-2.8649,-2.8711,-2.8826,-2.8833,-2.8696,-2.8534,-2.8653,-2.8591,-2.8432,-2.8696,-2.8547,-2.8575,-2.876,-2.9035,-2.9066,-2.9094,-2.9412,-2.9483,-2.9543,0,0,0,0,0,0,-2.8831,-2.8719,-2.8604,-2.8851,-2.8849,-2.877,-2.8917,-2.8777,-2.8827,-2.8794,-2.8627,-2.8622,-2.8844,-2.8822,-2.8658,-2.9063,-2.8837,-2.8874,-2.9069,-2.9136,-2.9189,-2.9189,-2.8373,0,0,0,0,0,-2.8938,-2.9034,-2.8934,-2.9162,-2.9165,-2.9042,-2.9087,-2.8979,-2.8974,-2.8974,-2.8927,-2.8933,-2.9015,-2.9075,-2.9147,-2.9431,-2.9416,-2.9571,-2.9625,-2.9669,-2.9703,-2.9843,-2.9909,-2.9207,-2.9206,-2.9206,0,0,-2.9164,-2.9114,-2.9187,-2.9233,-2.9219,-2.9325,-2.9044,-2.9172,-2.9249,-2.8996,-2.9174,-2.914,-2.9135,-2.9374,-2.9478,-2.9363,-2.9892,-2.9707,-2.9743,-2.9752,-2.988,-2.9947,-3.0006,-2.9227,-2.9223,-2.922,0,0,-2.9627,-2.9601,-2.9782,-2.977,-2.9748,-2.9662,-2.9706,-2.9646,-2.961,-2.9785,-2.9593,-2.9687,-2.9836,-2.9837,-2.9858,-3.031,-3.0164,-3.0339,-3.0622,-3.076,-3.0815,-3.0863,-3.102,-3.1078,-3.0373,-3.0374,-3.0375,0,-2.9912,-3.0058,-2.9896,-3.0031,-3.0055,-2.9819,-3.0002,-3.0002,-3.001,-3.0033,-2.9902,-3.0075,-3.0057,-3.0289,-3.0397,-3.0424,-3.0468,-3.0343,-3.0819,-3.0866,-3.0909,-3.1055,-3.1115,-3.0395,-3.0393,-3.039,-3.0388,0,-3.0406,-3.0511,-3.0661,-3.066,-3.0702,-3.0863,-3.0726,-3.0789,-3.0676,-3.0605,-3.0784,-3.0751,-3.0808,-3.0855,-3.0753,-3.1071,-3.0999,-3.0848,-3.0617,-3.0999,-3.1134,-3.119,-3.0425,-3.0418,-3.0411,-3.0406,0,0,-3.1102,-3.1,-3.1058,-3.105,-3.1004,-3.1085,-3.1233,-3.1278,-3.1333,-3.1345,-3.1464,-3.159,-3.1444,-3.1468,-3.1362,-3.1484,-3.1836,-3.1315,-3.1312,-3.1409,-3.2178,-3.229,-3.2358,-3.1738,-3.1748,-3.1756,-3.2176,0,-3.1543,-3.178,-3.1635,-3.1898,-3.1989,-3.1763,-3.1891,-3.1879,-3.1815,-3.1887,-3.1819,-3.1908,-3.1713,-3.1724,-3.1835,-3.177,-3.1988,-3.1738,-3.1848,-3.1853,-3.1852,-3.2429,-3.255,-3.2948,-3.2229,-3.2238,-3.2244,0,-3.209,-3.2111,-3.238,-3.2305,-3.2339,-3.2456,-3.2481,-3.2553,-3.2533,-3.2478,-3.2499,-3.236,-3.2501,-3.2273,-3.2464,-3.2297,-3.2333,-3.2308,-3.2319,-3.2323,-3.2071,-3.2444,-3.3073,-3.3131,-3.2327,-3.2321,-3.2315,0,-3.2561,-3.266,-3.2829,-3.2832,-3.2752,-3.2838,-3.2811,-3.2777,-3.2811,-3.2836,-3.2855,-3.2902,-3.2926,-3.2965,-3.2842,-3.2688,-3.3048,-3.2812,-3.3006,-3.3009,-3.3091,-3.3087,-3.373,-3.3122,-3.3121,-3.312,-3.3119,0,-3.3066,-3.3238,-3.3038,-3.3144,-3.3328,-3.316,-3.335,-3.3299,-3.327,-3.3362,-3.3174,-3.3266,-3.3099,-3.3175,-3.3081,-3.3249,-3.3264,-3.3223,-3.3196,-3.3238,-3.3242,-3.3258,-3.3225,-3.3136,-3.3132,-3.3129,-3.3126,0,-3.3624,-3.3497,-3.3666,-3.3573,-3.3553,-3.3694,-3.3615,-3.3709,-3.3629,-3.3748,-3.3767,-3.3644,-3.3722,-3.3602,-3.3672,-3.3607,-3.3838,-3.3771,-3.3842,-3.3821,-3.4019,-3.4,-3.4691,-3.4771,-3.4118,-3.4124,-3.413,0,-3.3952,-3.4077,-3.3992,-3.4035,-3.4015,-3.4091,-3.412,-3.396,-3.4,-3.398,-3.4077,-3.4137,-3.4176,-3.4313,-3.4233,-3.4282,-3.4212,-3.445,-3.4219,-3.4254,-3.4208,-3.42,-3.4209,-3.4498,-3.4506,-3.4512,-3.4518,0,-3.4546,-3.4474,-3.452,-3.4543,-3.4581,-3.4594,-3.4594,-3.4643,-3.4473,-3.4528,-3.4599,-3.4629,-3.4691,-3.4753,-3.4781,-3.4756,-3.461,-3.459,-3.4636,-3.4679,-3.4712,-3.469,-3.3967,-3.4576,-3.457,-3.4565,-3.4562,-3.456,-3.4994,-3.509,-3.5042,-3.5098,-3.5079,-3.5081,-3.516,-3.5086,-3.5141,-3.5173,-3.5077,-3.5171,-3.5142,-3.5161,-3.5152,-3.5225,-3.512,-3.519,-3.5206,-3.5224,-3.5252,-3.4703,-3.5231,-3.5229,-3.5227,-3.5225,-3.5224,0,-3.5571,-3.5526,-3.5579,-3.5578,-3.5622,-3.5471,-3.5462,-3.551,-3.5591,-3.5574,-3.5612,-3.5693,-3.5749,-3.567,-3.5713,-3.5786,-3.5719,-3.5803,-3.5794,-3.5789,-3.5347,-3.5299,-3.5855,-3.5855,-3.5855,-3.5855,-3.5855,-3.5854,-3.5876,-3.6028,-3.595,-3.609,-3.6046,-3.6129,-3.6135,-3.6136,-3.6118,-3.6214,-3.6256,-3.6201,-3.6158,-3.6194,-3.6239,-3.6214,-3.6237,-3.6344,-3.6296,-3.5883,-3.5822,-3.5763,-3.5716,-3.6351,-3.6352,-3.673,-3.6734,-3.6737]}]]